SL-3 R/B (12904 NORAD) Tracking and Keplerian Element Data

This shows tracking and keplerian element data for the satellite.

Feedback or suggestion? Click here.




ElementValue
Catalog12904
NameSL-3 R/B
Epoch Orbit74473
Epoch Day16.21998345
Epoch Year2022
RAAN162.3992
Inclination81.1775
Eccentricity0.002757
Argument of Perigee314.4174
Mean Anonmoly45.4792
Mean Motion15.06253341
Decay Rate1.711E-05
L11 12904U 81103B 22016.21998345 .00001711 00000+0 11415-3 0 9995
L22 12904 81.1775 162.3992 0027570 314.4174 45.4792 15.06253341744730

Live tracking and technical data element details for SL-3 R/B (NORAD 12904). SL-3 R/B can be tracked NOW for your location showing map with azimuth and elevation plus other details from your city location.

Track the satellite on the map from your city or location and see movement details for azimuth, elevation, latitude, longitude, range, height, and movement on the map or in text.







IsCatalogInMostPopularTable: catalog: 12904, numindb: 324
Update: records affected: 1



GetName: 12904 SL-3 R/B

Hit Count: updated at: Mon, 17 Jan 2022 01:11:57 GMT